Other Public Products
Issued by NWS Grand Forks, ND

Home | Current Version | Previous Version | Graphics & Text | Print | Product List | Glossary On
Versions: 1 2 3 4 5 6 7 8 9 10 11 12 13 14 15 16 17 18 19 20 21 22 23 24 25 26 27 28 29 30 31 32 33 34 35 36 37 38 39 40 41 42 43 44 45 46 47 48 49 50
000
FPUS83 KFGF 271210
OPUFGF
PRAIRIE TO PINES WEATHER ROUNDUP
NATIONAL WEATHER SERVICE EASTERN NORTH DAKOTA/GRAND FORKS ND
600 AM CST SAT DEC 27 2014

 **SATELLITE DATA USED TO AUGMENT SKY COVER AT AUTOMATED STATIONS**
 *****  WEATHER ACROSS EASTERN NORTH DAKOTA  *****

CITY           SKY/WX    TMP DP  RH WIND       PRES   REMARKS
GRAND FORKS    CLOUDY     3  -2  79 S5        30.14F WCI  -6
6HR MIN TEMP:   0; 6HR MAX TEMP:   5;

GRAND FORKS AF CLOUDY     4   1  88 S5        30.13F WCI  -5
GRAND CITY NWS   N/A      3 N/A N/A W7          N/A  WCI  -9
BUXTON         NOT AVBL
DEVILS LAKE    CLOUDY    12   7  79 S6        30.04F WCI   3
6HR MIN TEMP:  -4; 6HR MAX TEMP:  12;

FARGO          CLEAR      2  -3  80 CALM      30.16F
6HR MIN TEMP:   2; 6HR MAX TEMP:   7;

WAHPETON ARPT  SUNNY      7   3  85 NW5       30.18S WCI  -2
$$

 *****  WEATHER ACROSS CENTRAL AND WESTERN NORTH DAKOTA  *****

CITY           SKY/WX    TMP DP  RH WIND       PRES   REMARKS
JAMESTOWN      PTCLDY     6   1  80 CALM      30.08F
6HR MIN TEMP:   0; 6HR MAX TEMP:   7;

BISMARCK       CLOUDY     7   4  87 E3        30.10F
6HR MIN TEMP:  -1; 6HR MAX TEMP:   7;

MINOT          PTCLDY    19  13  77 W13       30.02F WCI   6
6HR MIN TEMP:  13; 6HR MAX TEMP:  22; 6HR PCP: TRACE;

MINOT AFB      MOCLDY    14  14  98 W8        30.02F WCI   3
6HR MIN TEMP:  12; 6HR MAX TEMP:  20; 6HR PCP: TRACE;

GARRISON         N/A     23  19  85 NW10      30.03S WCI  12
6HR MIN TEMP:  16; 6HR MAX TEMP:  23;

WILLISTON      CLEAR     10   7  87 S3        30.05F
6HR MIN TEMP:   8; 6HR MAX TEMP:  22;

DICKINSON      CLEAR     17  10  74 W10       30.02F WCI   5
6HR MIN TEMP:  15; 6HR MAX TEMP:  24;

HETTINGER      CLOUDY    21  17  84 W10       30.07F WCI  10
6HR MIN TEMP:   3; 6HR MAX TEMP:  21;

$$

 *****  OTHER OBSERVATIONS NORTHEAST NORTH DAKOTA  *****

CITY           SKY/WX    TMP DP  RH WIND       PRES   REMARKS
WALHALLA         N/A      1   0  92 SE6       30.09S WCI -10
LANGDON        CLOUDY     7   3  85 SW7       30.01F WCI  -5
CAVALIER       CLOUDY     5   0  78 S7        30.09F WCI  -7
GRAFTON        NOT AVBL
CANDO          CLOUDY    14  10  85 SW5       30.03F WCI   6
FORT TOTTEN      N/A     10   6  84 S7        29.95S WCI  -1
ROLLA          CLOUDY    10   9  92 SW12      29.99S WCI  -4
RUGBY          FLURRIES  14  12  92 SW5       30.02F WCI   6
 ***** THE ABOVE OBSERVATIONS ARE NON NWS ARE NOT QUALITY
        CONTROLLED AND MAY MIS-REPORT RAIN FOR SNOW...
$$

 *****  OTHER OBSERVATIONS SOUTHEAST NORTH DAKOTA *****

CITY           SKY/WX    TMP DP  RH WIND       PRES   REMARKS
COOPERSTOWN    NOT AVBL
VALLEY CITY    CLOUDY     3   3 100 S3        30.11S
OAKES            N/A      1   0  92 S6        30.15S WCI -10
GWINNER        SUNNY      5   1  85 N7        30.16S WCI  -7
SHEYENNE NWR     N/A      1  -3  81 W2        29.95S
BUFFALO        NOT AVBL
WYNDMERE         N/A      3   1  92 W3          N/A
 ***** THE ABOVE OBSERVATIONS ARE NON NWS ARE NOT QUALITY
       CONTROLLED AND MAY MIS-REPORT RAIN FOR SNOW...
$$

  *****  WEATHER ACROSS NORTHERN MINNESOTA  *****

CITY           SKY/WX    TMP DP  RH WIND       PRES   REMARKS
FLAG ISLAND    CLOUDY     9   5  85 SW3       30.08S
WARROAD        CLOUDY     9   3  78 SW3       30.09F
ROSEAU         LGT SNOW   9   3  78 SW6       30.10F WCI  -1
HALLOCK        CLOUDY     3   0  85 S9        30.13S WCI -11
THF RVR FALLS  CLOUDY     7   3  85 SW6       30.11F WCI  -3
6HR MIN TEMP:   7; 6HR MAX TEMP:  10;

HALSTAD          N/A      2  -2  84 W3          N/A
FOSSTON        LGT SNOW   5   1  85 CALM      30.11F
BAUDETTE       CLOUDY     9   4  80 SW7       30.09S WCI  -2
6HR MIN TEMP:   9; 6HR MAX TEMP:  14; 6HR PCP: TRACE;

WASKISH        FLURRIES  12   9  85 CALM      30.09S
CROOKSTON      CLEAR      3   0  85 W5        30.15F WCI  -6
$$
  *****  WEATHER ACROSS CENTRAL AND WEST MINNESOTA  *****

CITY           SKY/WX    TMP DP  RH WIND       PRES   REMARKS
BEMIDJI        FLURRIES   9   6  88 NW10      30.08S WCI  -5
PARK RAPIDS    CLOUDY    14   9  80 NW7       30.07R WCI   4
6HR MIN TEMP:  14; 6HR MAX TEMP:  20;

WADENA         CLOUDY    12  10  92 W9        30.09S WCI   0
DETROIT LAKES  LGT SNOW   9   5  85 CALM      30.12S
MOORHEAD       FAIR       3   3 100 CALM      30.17S
FERGUS FALLS   PTCLDY     5   1  85 NW8       30.19S WCI  -8
ELBOW LAKE     FAIR       7   4  86 NW9       30.14S WCI  -6
6HR MIN TEMP:   7; 6HR MAX TEMP:  17;

MORRIS MN      CLOUDY    10   7  85 NW14      30.13S WCI  -5
STAPLES        CLOUDY    18  12  79 NW8       30.08R WCI   7
WHEATON        PTCLDY     7   3  85 W7        30.19S WCI  -5
$$
  *****  WEATHER ELSEWHERE ACROSS MINNESOTA  *****

CITY           SKY/WX    TMP DP  RH WIND       PRES   REMARKS
DULUTH         CLOUDY    20  15  81 N13       29.98S WCI   7
6HR MIN TEMP:  20; 6HR MAX TEMP:  24;

INTRNTL FALLS  CLOUDY    10   5  80 NW8       30.08S WCI  -2
6HR MIN TEMP:  10; 6HR MAX TEMP:  16; 6HR PCP: TRACE;

ELY            CLOUDY    14  10  85 N3        30.02S
CLOQUET        CLOUDY    19  16  86 NW9       30.01R WCI   9
BRAINERD       CLOUDY    20  14  77 N8        30.06S WCI  10
6HR MIN TEMP:  20; 6HR MAX TEMP:  21;

HIBBING        CLOUDY    17   9  70 NW8       30.04R WCI   7
6HR MIN TEMP:  17; 6HR MAX TEMP:  21;

ALEXANDRIA     CLOUDY    15  11  83 NW12      30.10R WCI   2
6HR MIN TEMP:  15; 6HR MAX TEMP:  22;

SAINT CLOUD    LGT SNOW  24  16  71 NW9       30.06R WCI  14
6HR MIN TEMP:  24; 6HR MAX TEMP:  27; 6HR PCP: TRACE;

MINNEAPOLIS    LGT SNOW  24  21  88 NW15      30.02R VSB 1   WCI  11
6HR MIN TEMP:  24; 6HR MAX TEMP:  28; 6HR PCP:  0.18;

$$

  *****  WEATHER ACROSS SOUTH DAKOTA  *****

CITY           SKY/WX    TMP DP  RH WIND       PRES   REMARKS
SIOUX FALLS    FLURRIES  18  14  84 NW12      30.13R WCI   5
6HR MIN TEMP:  18; 6HR MAX TEMP:  22; 6HR PCP:  0.08;

BROOKINGS      NOT AVBL
WATERTOWN      MOCLDY     9   4  80 NW12      30.11S WCI  -6
6HR MIN TEMP:   9; 6HR MAX TEMP:  17; 6HR PCP: TRACE;

HURON          PTCLDY     3   0  87 NW8       30.19S WCI -10
6HR MIN TEMP:   3; 6HR MAX TEMP:  16; 6HR PCP:  0.01;

SISSETON         N/A      7   3  84 NW6       30.16S WCI  -3
ABERDEEN       CLEAR      2  -2  83 SW5       30.17F WCI  -8
6HR MIN TEMP:   2; 6HR MAX TEMP:  10;

MITCHELL       CLOUDY    11   7  84 NW14      30.20R WCI  -5
PIERRE         CLOUDY     8   5  87 SW7       30.16S WCI  -3
6HR MIN TEMP:   3; 6HR MAX TEMP:   9;

MOBRIDGE       FOG        2  -1  88 E6        30.10F VSB 1/4 WCI  -9
RAPID CITY     CLOUDY    11   6  81 N3        30.10S
6HR MIN TEMP:   4; 6HR MAX TEMP:  14;

$$

  *****  SOME WEATHER IN NEARBY STATES *****

CITY           SKY/WX    TMP DP  RH WIND       PRES   REMARKS
GLASGOW MT     PTCLDY    14  10  84 CALM      30.02F
6HR MIN TEMP:  12; 6HR MAX TEMP:  17;

GREAT FALLS MT CLOUDY    21  15  78 SW15      30.02R WCI   8
6HR MIN TEMP:  14; 6HR MAX TEMP:  21;

CHEYENNE WY    CLEAR      9   0  67 NW14      30.04S WCI  -7
6HR MIN TEMP:   5; 6HR MAX TEMP:  11;

SCOTTSBLUFF NE PTCLDY    -1  -4  87 NW9       30.14S WCI -16
6HR MIN TEMP:  -1; 6HR MAX TEMP:  15;

OMAHA NE       FLURRIES  25  20  81 NW15      30.15R WCI  13
6HR MIN TEMP:  25; 6HR MAX TEMP:  31; 6HR PCP:  0.01;

DES MOINES IA  CLOUDY    32  27  81 NW16      30.04R WCI  21
6HR MIN TEMP:  32; 6HR MAX TEMP:  35; 6HR PCP:  0.02;

DAVENPORT IA   LGT RAIN  46  43  89 W25G33    29.93R FOG
6HR MIN TEMP:  43; 6HR MAX TEMP:  49; 6HR PCP:  0.04;

CHICAGO IL     CLOUDY    46  44  93 S14       29.95S
6HR MIN TEMP:  43; 6HR MAX TEMP:  47;

EAU CLAIRE WI  LGT SNOW  29  26  89 N8        29.91R VSB 1   WCI  21
6HR MIN TEMP:  29; 6HR MAX TEMP:  30; 6HR PCP:  0.22;

LA CROSSE WI   MIX PCPN  33  32  96 NW10      29.88R WCI  25
6HR MIN TEMP:  33; 6HR MAX TEMP:  34; 6HR PCP:  0.09;

$$

  *****  SOME NATIONAL WEATHER *****

CITY           SKY/WX    TMP DP  RH WIND       PRES   REMARKS



USA.gov is the U.S. government's official web portal to all federal, state and local government web resources and services.